Dewpoint
57 58 58 58 59 60 61 61 63 63 64 63 63 64 64 66 65 65 64 64 64 64 65 65 65 65 65 65 65 65 65 65 64 64 64 64 64 65 64 64 64 64
57 57 57 57 58 59 59 60 60 61 63 64 63 64 65 64 66 66 65 64 63 64 64 65 65 65 65 65 65 65 64 64 64 64 64 64 64 64 64 64 64 64
56 56 57 56 57 57 58 58 59 60 61 62 63 63 64 65 65 65 65 65 64 64 64 64 64 64 64 64 65 65 64 64 63 64 64 64 63 64 64 64 64 64
55 55 56 56 56 56 56 56 57 58 58 59 59 61 62 63 63 64 65 64 63 64 64 64 64 64 63 63 64 64 63 64 64 64 64 63 64 64 64 64 64 64
54 53 54 54 55 55 56 56 55 56 56 57 58 59 60 62 63 62 63 64 64 63 63 63 63 63 64 64 63 63 63 63 63 63 63 63 63 63 64 64 64 64
53 52 52 53 54 54 54 54 54 55 55 56 57 58 59 60 61 62 62 62 63 63 63 63 63 63 64 64 63 64 63 63 64 64 64 63 63 63 63 64 63 63
53 53 53 52 53 54 54 54 54 54 55 56 56 57 57 57 58 60 62 62 62 62 62 62 63 63 64 63 63 63 64 64 64 63 63 63 63 63 64 63 63 62
52 51 52 51 52 52 52 52 52 54 54 54 54 54 55 56 56 58 60 62 62 62 61 62 62 62 63 63 63 63 62 63 63 63 62 62 62 62 63 63 63 62
51 50 50 51 51 51 51 51 51 52 52 52 52 53 53 54 55 56 57 58 59 62 62 62 62 61 63 63 62 62 61 62 63 62 62 62 62 62 62 63 63 62
49 49 50 50 50 50 50 50 50 50 51 51 51 51 51 52 54 54 55 55 57 59 61 61 62 62 61 62 63 62 62 62 63 62 62 62 62 62 62 63 62 62
49 49 49 49 49 49 50 49 49 49 49 49 49 49 49 50 50 51 52 53 54 55 56 58 61 61 61 61 62 62 62 62 62 62 62 63 62 62 62 62 63 62
48 48 48 48 48 48 49 48 48 48 48 48 48 47 48 49 49 49 50 50 50 51 54 56 57 59 61 61 61 62 62 62 62 63 62 62 62 62 62 62 62 62
47 47 47 47 47 47 47 47 47 47 46 46 47 47 47 47 47 47 48 49 49 49 51 52 54 56 59 53 52 56 60 62 62 61 61 62 62 62 62 62 62 62
46 46 46 46 46 46 46 46 46 46 46 46 46 46 46 46 46 46 46 47 47 47 47 49 52 55 47 47 46 47 49 54 61 61 62 61 62 62 62 62 62 62
45 46 45 45 45 45 45 45 45 45 45 45 45 45 47 45 45 45 45 45 45 46 46 47 49 52 47 45 44 44 46 48 53 60 61 61 61 62 62 62 62 62
43 44 43 44 44 44 44 44 44 44 45 44 44 44 44 45 44 44 44 44 44 44 44 46 46 48 47 43 42 42 43 45 49 54 60 61 60 60 60 61 61 62
42 42 43 43 43 43 43 43 43 43 43 43 44 44 44 44 43 43 43 43 43 43 43 44 45 46 42 40 39 40 41 43 46 50 56 60 61 61 61 61 61 61
42 42 42 42 42 42 42 42 43 43 43 42 43 43 43 44 43 43 43 42 43 42 42 43 43 44 39 39 39 38 40 41 44 49 53 58 61 61 61 60 60 62
40 41 41 41 41 42 42 42 42 42 42 42 42 43 43 42 42 43 42 42 42 42 41 42 42 41 39 38 38 38 38 39 42 47 52 55 59 61 60 60 60 60
40 40 40 40 41 41 42 41 41 42 42 43 43 42 42 42 42 42 42 42 41 41 41 41 41 40 38 38 38 37 37 38 42 47 52 55 57 59 61 61 60 60
39 39 39 40 40 40 41 40 42 42 41 42 42 42 42 42 42 42 42 42 41 41 40 40 41 39 38 38 37 37 37 38 44 50 52 55 57 59 60 61 60 60
38 38 39 38 38 39 39 40 41 41 41 42 42 42 42 42 42 42 42 42 42 41 41 40 40 39 38 38 38 37 37 42 45 49 51 53 56 58 60 60 60 61
37 37 38 38 38 38 38 40 40 40 41 41 41 41 41 41 41 41 41 42 42 41 42 40 40 40 38 38 38 37 38 42 46 49 51 53 55 57 59 60 60 61
37 37 37 38 37 37 38 39 40 40 40 41 40 40 40 40 40 40 40 41 41 42 42 41 40 40 39 38 38 38 39 43 46 49 52 53 56 54 52 51 50 48
38 37 37 37 36 38 39 38 38 39 39 40 40 39 40 40 40 39 39 40 40 41 43 41 41 40 39 38 38 38 39 41 43 43 46 47 48 50 49 48 48 47
38 38 39 38 36 37 38 38 38 38 39 39 39 38 38 39 39 39 39 39 40 39 40 40 40 40 40 38 38 38 38 40 41 41 42 44 44 44 45 44 45 45